Export;EXP-2023-01 (20230707 00:10);;;StationsCode;NL49551;NL49553
Periode;20150101 00:00 - 20160101 00:00;;;BeheerderMeetStation;GGD A'dam;GGD A'dam
Bron;https://data.rivm.nl/data/luchtmeetnet;;;StationsNaam;IJmuiden-Kanaaldijk;Wijk aan Zee-Burgemeester Rothestraat
Beschrijving data;https://data.rivm.nl/data/luchtmeetnet/readme.pdf;;;Latitude,Longitude;(52.463039,4.601842);(52.493992,4.601986)
Accreditatienummer;https://www.rva.nl/alle-geaccrediteerden/;;;StationsGebied;stad;stad
;;;;StationsType;industrie;industrie
;;;;Meetprincipe;Ultraviolet fluorescentie (UV-F);Ultraviolet fluorescentie (UV-F)
;;;;Meetopstelling;H2S metingen met een Thermo monitor;H2S metingen met een Thermo monitor
;;;;Accreditatienummer;nvt;nvt
Component;Bep.periode;Eenheid; Begindatumtijd;Einddatumtijd;NL49551;NL49553
H2S;uur;�g/m�;20150101 00:00;20150101 01:00;3.4;4.1
H2S;uur;�g/m�;20150101 01:00;20150101 02:00;4;2.6
H2S;uur;�g/m�;20150101 02:00;20150101 03:00;;2.6
H2S;uur;�g/m�;20150101 03:00;20150101 04:00;0.2;4.3
H2S;uur;�g/m�;20150101 04:00;20150101 05:00;0.2;0.2
H2S;uur;�g/m�;20150101 05:00;20150101 06:00;0.2;0.4
H2S;uur;�g/m�;20150101 06:00;20150101 07:00;0.2;5
H2S;uur;�g/m�;20150101 07:00;20150101 08:00;0.1;6.3
H2S;uur;�g/m�;20150101 08:00;20150101 09:00;0.2;3
H2S;uur;�g/m�;20150101 09:00;20150101 10:00;0.2;4
H2S;uur;�g/m�;20150101 10:00;20150101 11:00;0.2;5.2
H2S;uur;�g/m�;20150101 11:00;20150101 12:00;0.1;5.2
H2S;uur;�g/m�;20150101 12:00;20150101 13:00;0.1;3.3
H2S;uur;�g/m�;20150101 13:00;20150101 14:00;0.1;2.5
H2S;uur;�g/m�;20150101 14:00;20150101 15:00;0.1;7.6
H2S;uur;�g/m�;20150101 15:00;20150101 16:00;0.2;3
H2S;uur;�g/m�;20150101 16:00;20150101 17:00;0.4;4.5
H2S;uur;�g/m�;20150101 17:00;20150101 18:00;0.1;2.8
H2S;uur;�g/m�;20150101 18:00;20150101 19:00;0.1;6
H2S;uur;�g/m�;20150101 19:00;20150101 20:00;0.3;7.3
H2S;uur;�g/m�;20150101 20:00;20150101 21:00;0.1;4.4
H2S;uur;�g/m�;20150101 21:00;20150101 22:00;0.1;4.5
H2S;uur;�g/m�;20150101 22:00;20150101 23:00;0.1;3.4
H2S;uur;�g/m�;20150101 23:00;20150102 00:00;0.1;5.3
H2S;uur;�g/m�;20150102 00:00;20150102 01:00;0.2;
H2S;uur;�g/m�;20150102 01:00;20150102 02:00;0.1;3.7
H2S;uur;�g/m�;20150102 02:00;20150102 03:00;0;2
H2S;uur;�g/m�;20150102 03:00;20150102 04:00;0.1;0.3
H2S;uur;�g/m�;20150102 04:00;20150102 05:00;0;0.1
H2S;uur;�g/m�;20150102 05:00;20150102 06:00;0;0
H2S;uur;�g/m�;20150102 06:00;20150102 07:00;0;0
H2S;uur;�g/m�;20150102 07:00;20150102 08:00;0;0
H2S;uur;�g/m�;20150102 08:00;20150102 09:00;0.1;0
H2S;uur;�g/m�;20150102 09:00;20150102 10:00;0.1;0
H2S;uur;�g/m�;20150102 10:00;20150102 11:00;0;0
H2S;uur;�g/m�;20150102 11:00;20150102 12:00;0.2;0
H2S;uur;�g/m�;20150102 12:00;20150102 13:00;0.1;0
H2S;uur;�g/m�;20150102 13:00;20150102 14:00;0;0
H2S;uur;�g/m�;20150102 14:00;20150102 15:00;0;0
H2S;uur;�g/m�;20150102 15:00;20150102 16:00;0;0
H2S;uur;�g/m�;20150102 16:00;20150102 17:00;0;0
H2S;uur;�g/m�;20150102 17:00;20150102 18:00;0;0
H2S;uur;�g/m�;20150102 18:00;20150102 19:00;0;0
H2S;uur;�g/m�;20150102 19:00;20150102 20:00;0;0
H2S;uur;�g/m�;20150102 20:00;20150102 21:00;0;0
H2S;uur;�g/m�;20150102 21:00;20150102 22:00;0.1;0
H2S;uur;�g/m�;20150102 22:00;20150102 23:00;0;0
H2S;uur;�g/m�;20150102 23:00;20150103 00:00;0;0
H2S;uur;�g/m�;20150103 00:00;20150103 01:00;0;0
H2S;uur;�g/m�;20150103 01:00;20150103 02:00;0;0
H2S;uur;�g/m�;20150103 02:00;20150103 03:00;0;0
H2S;uur;�g/m�;20150103 03:00;20150103 04:00;0;0
H2S;uur;�g/m�;20150103 04:00;20150103 05:00;;0
H2S;uur;�g/m�;20150103 05:00;20150103 06:00;0.3;0
H2S;uur;�g/m�;20150103 06:00;20150103 07:00;0.6;0
H2S;uur;�g/m�;20150103 07:00;20150103 08:00;0.4;0
H2S;uur;�g/m�;20150103 08:00;20150103 09:00;0.3;0
H2S;uur;�g/m�;20150103 09:00;20150103 10:00;0.6;0
H2S;uur;�g/m�;20150103 10:00;20150103 11:00;0.5;0
H2S;uur;�g/m�;20150103 11:00;20150103 12:00;0.5;0
H2S;uur;�g/m�;20150103 12:00;20150103 13:00;0.3;0
H2S;uur;�g/m�;20150103 13:00;20150103 14:00;0.5;0
H2S;uur;�g/m�;20150103 14:00;20150103 15:00;0.4;0.7
H2S;uur;�g/m�;20150103 15:00;20150103 16:00;0.6;1
H2S;uur;�g/m�;20150103 16:00;20150103 17:00;0.5;0.1
H2S;uur;�g/m�;20150103 17:00;20150103 18:00;0.4;0
H2S;uur;�g/m�;20150103 18:00;20150103 19:00;0.6;0
H2S;uur;�g/m�;20150103 19:00;20150103 20:00;0.2;0
H2S;uur;�g/m�;20150103 20:00;20150103 21:00;2.6;0
H2S;uur;�g/m�;20150103 21:00;20150103 22:00;4;0
H2S;uur;�g/m�;20150103 22:00;20150103 23:00;6.5;0
H2S;uur;�g/m�;20150103 23:00;20150104 00:00;3;0
H2S;uur;�g/m�;20150104 00:00;20150104 01:00;4;0
H2S;uur;�g/m�;20150104 01:00;20150104 02:00;1.1;0
H2S;uur;�g/m�;20150104 02:00;20150104 03:00;0.6;
H2S;uur;�g/m�;20150104 03:00;20150104 04:00;2.7;0
H2S;uur;�g/m�;20150104 04:00;20150104 05:00;0.4;0
H2S;uur;�g/m�;20150104 05:00;20150104 06:00;1.9;0
H2S;uur;�g/m�;20150104 06:00;20150104 07:00;2.5;0
H2S;uur;�g/m�;20150104 07:00;20150104 08:00;0.7;0
H2S;uur;�g/m�;20150104 08:00;20150104 09:00;0.3;0
H2S;uur;�g/m�;20150104 09:00;20150104 10:00;0.5;0
H2S;uur;�g/m�;20150104 10:00;20150104 11:00;1.1;0
H2S;uur;�g/m�;20150104 11:00;20150104 12:00;0.3;0
H2S;uur;�g/m�;20150104 12:00;20150104 13:00;0.6;0
H2S;uur;�g/m�;20150104 13:00;20150104 14:00;0.6;0
H2S;uur;�g/m�;20150104 14:00;20150104 15:00;0.3;0
H2S;uur;�g/m�;20150104 15:00;20150104 16:00;0.3;0
H2S;uur;�g/m�;20150104 16:00;20150104 17:00;0.7;0
H2S;uur;�g/m�;20150104 17:00;20150104 18:00;0.5;0.1
H2S;uur;�g/m�;20150104 18:00;20150104 19:00;1;0.1
H2S;uur;�g/m�;20150104 19:00;20150104 20:00;1;0
H2S;uur;�g/m�;20150104 20:00;20150104 21:00;0.6;0.1
H2S;uur;�g/m�;20150104 21:00;20150104 22:00;0.4;0.1
H2S;uur;�g/m�;20150104 22:00;20150104 23:00;0.7;0
H2S;uur;�g/m�;20150104 23:00;20150105 00:00;0.8;0
H2S;uur;�g/m�;20150105 00:00;20150105 01:00;0.6;0.1
H2S;uur;�g/m�;20150105 01:00;20150105 02:00;0.5;0
H2S;uur;�g/m�;20150105 02:00;20150105 03:00;0.9;0.1
H2S;uur;�g/m�;20150105 03:00;20150105 04:00;0.4;0
H2S;uur;�g/m�;20150105 04:00;20150105 05:00;0.5;0
H2S;uur;�g/m�;20150105 05:00;20150105 06:00;0.5;0
H2S;uur;�g/m�;20150105 06:00;20150105 07:00;;0
H2S;uur;�g/m�;20150105 07:00;20150105 08:00;1.1;0.3
H2S;uur;�g/m�;20150105 08:00;20150105 09:00;1;4.5
H2S;uur;�g/m�;20150105 09:00;20150105 10:00;1.4;5.5
H2S;uur;�g/m�;20150105 10:00;20150105 11:00;1.1;2.3
H2S;uur;�g/m�;20150105 11:00;20150105 12:00;1.2;3.3
H2S;uur;�g/m�;20150105 12:00;20150105 13:00;1.3;10.4
H2S;uur;�g/m�;20150105 13:00;20150105 14:00;1.5;5.8
H2S;uur;�g/m�;20150105 14:00;20150105 15:00;1.3;7
H2S;uur;�g/m�;20150105 15:00;20150105 16:00;1.7;6
H2S;uur;�g/m�;20150105 16:00;20150105 17:00;1;5.8
H2S;uur;�g/m�;20150105 17:00;20150105 18:00;1.4;5.7
H2S;uur;�g/m�;20150105 18:00;20150105 19:00;1.9;5.6
H2S;uur;�g/m�;20150105 19:00;20150105 20:00;1.4;4.1
H2S;uur;�g/m�;20150105 20:00;20150105 21:00;1.6;3.6
H2S;uur;�g/m�;20150105 21:00;20150105 22:00;1.8;3.8
H2S;uur;�g/m�;20150105 22:00;20150105 23:00;2.1;4.6
H2S;uur;�g/m�;20150105 23:00;20150106 00:00;2;3.8
H2S;uur;�g/m�;20150106 00:00;20150106 01:00;1.3;4.4
H2S;uur;�g/m�;20150106 01:00;20150106 02:00;1.8;2.4
H2S;uur;�g/m�;20150106 02:00;20150106 03:00;2.2;4.4
H2S;uur;�g/m�;20150106 03:00;20150106 04:00;1.3;2
H2S;uur;�g/m�;20150106 04:00;20150106 05:00;1.6;
H2S;uur;�g/m�;20150106 05:00;20150106 06:00;1.1;1.3
H2S;uur;�g/m�;20150106 06:00;20150106 07:00;1.6;1.3
H2S;uur;�g/m�;20150106 07:00;20150106 08:00;1.5;0.8
H2S;uur;�g/m�;20150106 08:00;20150106 09:00;1.7;0.3
H2S;uur;�g/m�;20150106 09:00;20150106 10:00;1.7;0.2
H2S;uur;�g/m�;20150106 10:00;20150106 11:00;1.3;0.4
H2S;uur;�g/m�;20150106 11:00;20150106 12:00;1.7;0.7
H2S;uur;�g/m�;20150106 12:00;20150106 13:00;1.7;2.3
H2S;uur;�g/m�;20150106 13:00;20150106 14:00;2;1.2
H2S;uur;�g/m�;20150106 14:00;20150106 15:00;2;2.4
H2S;uur;�g/m�;20150106 15:00;20150106 16:00;1.4;3.2
H2S;uur;�g/m�;20150106 16:00;20150106 17:00;1.9;1.2
H2S;uur;�g/m�;20150106 17:00;20150106 18:00;1.7;2.1
H2S;uur;�g/m�;20150106 18:00;20150106 19:00;2.2;0.6
H2S;uur;�g/m�;20150106 19:00;20150106 20:00;1.5;2.3
H2S;uur;�g/m�;20150106 20:00;20150106 21:00;1.1;1.2
H2S;uur;�g/m�;20150106 21:00;20150106 22:00;0.9;0.2
H2S;uur;�g/m�;20150106 22:00;20150106 23:00;1.7;0.1
H2S;uur;�g/m�;20150106 23:00;20150107 00:00;0.9;0
H2S;uur;�g/m�;20150107 00:00;20150107 01:00;0.8;0.1
H2S;uur;�g/m�;20150107 01:00;20150107 02:00;0.6;0
H2S;uur;�g/m�;20150107 02:00;20150107 03:00;0.3;0
H2S;uur;�g/m�;20150107 03:00;20150107 04:00;0.5;0
H2S;uur;�g/m�;20150107 04:00;20150107 05:00;0.6;0
H2S;uur;�g/m�;20150107 05:00;20150107 06:00;0.8;0
H2S;uur;�g/m�;20150107 06:00;20150107 07:00;0.5;0.1
H2S;uur;�g/m�;20150107 07:00;20150107 08:00;1.1;0
H2S;uur;�g/m�;20150107 08:00;20150107 09:00;;0
H2S;uur;�g/m�;20150107 09:00;20150107 10:00;0.2;0.1
H2S;uur;�g/m�;20150107 10:00;20150107 11:00;0.3;3.6
H2S;uur;�g/m�;20150107 11:00;20150107 12:00;0.4;2.7
H2S;uur;�g/m�;20150107 12:00;20150107 13:00;0.5;1.5
H2S;uur;�g/m�;20150107 13:00;20150107 14:00;0.4;2.3
H2S;uur;�g/m�;20150107 14:00;20150107 15:00;0.5;0.9
H2S;uur;�g/m�;20150107 15:00;20150107 16:00;0.4;1.6
H2S;uur;�g/m�;20150107 16:00;20150107 17:00;0.5;4.6
H2S;uur;�g/m�;20150107 17:00;20150107 18:00;0.5;3.5
H2S;uur;�g/m�;20150107 18:00;20150107 19:00;0.6;5.3
H2S;uur;�g/m�;20150107 19:00;20150107 20:00;0.7;5.7
H2S;uur;�g/m�;20150107 20:00;20150107 21:00;0.6;3.5
H2S;uur;�g/m�;20150107 21:00;20150107 22:00;0.7;6.8
H2S;uur;�g/m�;20150107 22:00;20150107 23:00;0.6;3.3
H2S;uur;�g/m�;20150107 23:00;20150108 00:00;0.3;3.3
H2S;uur;�g/m�;20150108 00:00;20150108 01:00;0.4;7.4
H2S;uur;�g/m�;20150108 01:00;20150108 02:00;0.4;2.4
H2S;uur;�g/m�;20150108 02:00;20150108 03:00;0.3;4.9
H2S;uur;�g/m�;20150108 03:00;20150108 04:00;0.4;3.8
H2S;uur;�g/m�;20150108 04:00;20150108 05:00;0.4;3.9
H2S;uur;�g/m�;20150108 05:00;20150108 06:00;0.2;1.7
H2S;uur;�g/m�;20150108 06:00;20150108 07:00;0.5;
H2S;uur;�g/m�;20150108 07:00;20150108 08:00;0.2;1.9
H2S;uur;�g/m�;20150108 08:00;20150108 09:00;0.3;0.2
H2S;uur;�g/m�;20150108 09:00;20150108 10:00;0.3;0.5
H2S;uur;�g/m�;20150108 10:00;20150108 11:00;0.4;0
H2S;uur;�g/m�;20150108 11:00;20150108 12:00;0.6;0
H2S;uur;�g/m�;20150108 12:00;20150108 13:00;0.3;0
H2S;uur;�g/m�;20150108 13:00;20150108 14:00;0.3;0
H2S;uur;�g/m�;20150108 14:00;20150108 15:00;0.2;0
H2S;uur;�g/m�;20150108 15:00;20150108 16:00;0.4;0
H2S;uur;�g/m�;20150108 16:00;20150108 17:00;0.4;0
H2S;uur;�g/m�;20150108 17:00;20150108 18:00;0.3;0
H2S;uur;�g/m�;20150108 18:00;20150108 19:00;0.3;0
H2S;uur;�g/m�;20150108 19:00;20150108 20:00;0.2;0
H2S;uur;�g/m�;20150108 20:00;20150108 21:00;0.3;0
H2S;uur;�g/m�;20150108 21:00;20150108 22:00;0.2;0
H2S;uur;�g/m�;20150108 22:00;20150108 23:00;0.2;0
H2S;uur;�g/m�;20150108 23:00;20150109 00:00;0.1;0
H2S;uur;�g/m�;20150109 00:00;20150109 01:00;0.1;0
H2S;uur;�g/m�;20150109 01:00;20150109 02:00;0.1;0
H2S;uur;�g/m�;20150109 02:00;20150109 03:00;0.2;0
H2S;uur;�g/m�;20150109 03:00;20150109 04:00;0.2;3.2
H2S;uur;�g/m�;20150109 04:00;20150109 05:00;0.4;2.1
H2S;uur;�g/m�;20150109 05:00;20150109 06:00;0.2;2
H2S;uur;�g/m�;20150109 06:00;20150109 07:00;0.4;0.9
H2S;uur;�g/m�;20150109 07:00;20150109 08:00;0.3;0
H2S;uur;�g/m�;20150109 08:00;20150109 09:00;0.2;0
H2S;uur;�g/m�;20150109 09:00;20150109 10:00;0.1;0
H2S;uur;�g/m�;20150109 10:00;20150109 11:00;;0
H2S;uur;�g/m�;20150109 11:00;20150109 12:00;1.2;0
H2S;uur;�g/m�;20150109 12:00;20150109 13:00;1;0
H2S;uur;�g/m�;20150109 13:00;20150109 14:00;1.2;0
H2S;uur;�g/m�;20150109 14:00;20150109 15:00;1.1;0
H2S;uur;�g/m�;20150109 15:00;20150109 16:00;1.2;0
H2S;uur;�g/m�;20150109 16:00;20150109 17:00;0.5;0
H2S;uur;�g/m�;20150109 17:00;20150109 18:00;1.2;0
H2S;uur;�g/m�;20150109 18:00;20150109 19:00;0.8;0
H2S;uur;�g/m�;20150109 19:00;20150109 20:00;0.9;0
H2S;uur;�g/m�;20150109 20:00;20150109 21:00;0.7;0
H2S;uur;�g/m�;20150109 21:00;20150109 22:00;0.7;0
H2S;uur;�g/m�;20150109 22:00;20150109 23:00;0.8;0
H2S;uur;�g/m�;20150109 23:00;20150110 00:00;0.9;0
H2S;uur;�g/m�;20150110 00:00;20150110 01:00;0.7;0
H2S;uur;�g/m�;20150110 01:00;20150110 02:00;0.8;0
H2S;uur;�g/m�;20150110 02:00;20150110 03:00;0.6;0
H2S;uur;�g/m�;20150110 03:00;20150110 04:00;0.8;0
H2S;uur;�g/m�;20150110 04:00;20150110 05:00;0.8;0
H2S;uur;�g/m�;20150110 05:00;20150110 06:00;0.8;0
H2S;uur;�g/m�;20150110 06:00;20150110 07:00;1;0
H2S;uur;�g/m�;20150110 07:00;20150110 08:00;1;0
H2S;uur;�g/m�;20150110 08:00;20150110 09:00;1;
H2S;uur;�g/m�;20150110 09:00;20150110 10:00;0.6;0.1
H2S;uur;�g/m�;20150110 10:00;20150110 11:00;0.4;0
H2S;uur;�g/m�;20150110 11:00;20150110 12:00;0.8;0
H2S;uur;�g/m�;20150110 12:00;20150110 13:00;0.4;0
H2S;uur;�g/m�;20150110 13:00;20150110 14:00;0.9;0
H2S;uur;�g/m�;20150110 14:00;20150110 15:00;0.8;0
H2S;uur;�g/m�;20150110 15:00;20150110 16:00;1.2;0
H2S;uur;�g/m�;20150110 16:00;20150110 17:00;1;0.1
H2S;uur;�g/m�;20150110 17:00;20150110 18:00;0.7;0
H2S;uur;�g/m�;20150110 18:00;20150110 19:00;0.6;0
H2S;uur;�g/m�;20150110 19:00;20150110 20:00;1;0
H2S;uur;�g/m�;20150110 20:00;20150110 21:00;1.1;0
H2S;uur;�g/m�;20150110 21:00;20150110 22:00;0.9;0
H2S;uur;�g/m�;20150110 22:00;20150110 23:00;1;0
H2S;uur;�g/m�;20150110 23:00;20150111 00:00;0.9;0
H2S;uur;�g/m�;20150111 00:00;20150111 01:00;1.2;0
H2S;uur;�g/m�;20150111 01:00;20150111 02:00;1;0
H2S;uur;�g/m�;20150111 02:00;20150111 03:00;0.8;0
H2S;uur;�g/m�;20150111 03:00;20150111 04:00;0.6;0
H2S;uur;�g/m�;20150111 04:00;20150111 05:00;0.9;0
H2S;uur;�g/m�;20150111 05:00;20150111 06:00;1;0
H2S;uur;�g/m�;20150111 06:00;20150111 07:00;1.1;0
H2S;uur;�g/m�;20150111 07:00;20150111 08:00;0.9;0
H2S;uur;�g/m�;20150111 08:00;20150111 09:00;0.8;0
H2S;uur;�g/m�;20150111 09:00;20150111 10:00;1.1;0
H2S;uur;�g/m�;20150111 10:00;20150111 11:00;0.6;0.1
H2S;uur;�g/m�;20150111 11:00;20150111 12:00;0.8;0
H2S;uur;�g/m�;20150111 12:00;20150111 13:00;;0
H2S;uur;�g/m�;20150111 13:00;20150111 14:00;0.9;0
H2S;uur;�g/m�;20150111 14:00;20150111 15:00;0.9;0
H2S;uur;�g/m�;20150111 15:00;20150111 16:00;0.8;0
H2S;uur;�g/m�;20150111 16:00;20150111 17:00;0.9;0
H2S;uur;�g/m�;20150111 17:00;20150111 18:00;1.4;0
H2S;uur;�g/m�;20150111 18:00;20150111 19:00;0.7;0
H2S;uur;�g/m�;20150111 19:00;20150111 20:00;0.8;0
H2S;uur;�g/m�;20150111 20:00;20150111 21:00;1;0
H2S;uur;�g/m�;20150111 21:00;20150111 22:00;1.1;0
H2S;uur;�g/m�;20150111 22:00;20150111 23:00;0.6;0
H2S;uur;�g/m�;20150111 23:00;20150112 00:00;0.8;0
H2S;uur;�g/m�;20150112 00:00;20150112 01:00;0.5;0
H2S;uur;�g/m�;20150112 01:00;20150112 02:00;1.1;0
H2S;uur;�g/m�;20150112 02:00;20150112 03:00;0.7;0
H2S;uur;�g/m�;20150112 03:00;20150112 04:00;0.7;0
H2S;uur;�g/m�;20150112 04:00;20150112 05:00;0.4;0
H2S;uur;�g/m�;20150112 05:00;20150112 06:00;0.6;0.1
H2S;uur;�g/m�;20150112 06:00;20150112 07:00;0.8;0.1
H2S;uur;�g/m�;20150112 07:00;20150112 08:00;0.7;0.6
H2S;uur;�g/m�;20150112 08:00;20150112 09:00;0.8;0.6
H2S;uur;�g/m�;20150112 09:00;20150112 10:00;0.9;0.5
H2S;uur;�g/m�;20150112 10:00;20150112 11:00;0.8;
H2S;uur;�g/m�;20150112 11:00;20150112 12:00;0.9;0.2
H2S;uur;�g/m�;20150112 12:00;20150112 13:00;0.6;0.1
H2S;uur;�g/m�;20150112 13:00;20150112 14:00;0.5;0.2
H2S;uur;�g/m�;20150112 14:00;20150112 15:00;1;0.1
H2S;uur;�g/m�;20150112 15:00;20150112 16:00;1.2;0.2
H2S;uur;�g/m�;20150112 16:00;20150112 17:00;0.5;1.9
H2S;uur;�g/m�;20150112 17:00;20150112 18:00;1.1;1.4
H2S;uur;�g/m�;20150112 18:00;20150112 19:00;0.7;1.4
H2S;uur;�g/m�;20150112 19:00;20150112 20:00;0.6;0.3
H2S;uur;�g/m�;20150112 20:00;20150112 21:00;1;0.5
H2S;uur;�g/m�;20150112 21:00;20150112 22:00;1.1;2.3
H2S;uur;�g/m�;20150112 22:00;20150112 23:00;1.1;0.7
H2S;uur;�g/m�;20150112 23:00;20150113 00:00;0.7;1.4
H2S;uur;�g/m�;20150113 00:00;20150113 01:00;0.5;0.5
H2S;uur;�g/m�;20150113 01:00;20150113 02:00;0.7;3.2
H2S;uur;�g/m�;20150113 02:00;20150113 03:00;0.6;4.3
H2S;uur;�g/m�;20150113 03:00;20150113 04:00;0.4;2.9
H2S;uur;�g/m�;20150113 04:00;20150113 05:00;0.5;3.1
H2S;uur;�g/m�;20150113 05:00;20150113 06:00;0.7;0.3
H2S;uur;�g/m�;20150113 06:00;20150113 07:00;1.1;0.3
H2S;uur;�g/m�;20150113 07:00;20150113 08:00;1.1;2.5
H2S;uur;�g/m�;20150113 08:00;20150113 09:00;0.6;3.4
H2S;uur;�g/m�;20150113 09:00;20150113 10:00;0.6;0.8
H2S;uur;�g/m�;20150113 10:00;20150113 11:00;0.8;0.7
H2S;uur;�g/m�;20150113 11:00;20150113 12:00;0.7;0.8
H2S;uur;�g/m�;20150113 12:00;20150113 13:00;0.7;0.2
H2S;uur;�g/m�;20150113 13:00;20150113 14:00;1.1;0
H2S;uur;�g/m�;20150113 14:00;20150113 15:00;;0
H2S;uur;�g/m�;20150113 15:00;20150113 16:00;0.1;4
H2S;uur;�g/m�;20150113 16:00;20150113 17:00;0;6.6
H2S;uur;�g/m�;20150113 17:00;20150113 18:00;0.2;9
H2S;uur;�g/m�;20150113 18:00;20150113 19:00;0;4.2
H2S;uur;�g/m�;20150113 19:00;20150113 20:00;0.1;0.4
H2S;uur;�g/m�;20150113 20:00;20150113 21:00;0;0.1
H2S;uur;�g/m�;20150113 21:00;20150113 22:00;0.1;0.1
H2S;uur;�g/m�;20150113 22:00;20150113 23:00;0.1;0.1
H2S;uur;�g/m�;20150113 23:00;20150114 00:00;0.1;0
H2S;uur;�g/m�;20150114 00:00;20150114 01:00;0;1.4
H2S;uur;�g/m�;20150114 01:00;20150114 02:00;0;0.5
H2S;uur;�g/m�;20150114 02:00;20150114 03:00;0;1
H2S;uur;�g/m�;20150114 03:00;20150114 04:00;0;0.1
H2S;uur;�g/m�;20150114 04:00;20150114 05:00;0;0
H2S;uur;�g/m�;20150114 05:00;20150114 06:00;0;0
H2S;uur;�g/m�;20150114 06:00;20150114 07:00;;0
H2S;uur;�g/m�;20150114 07:00;20150114 08:00;0.1;0
H2S;uur;�g/m�;20150114 08:00;20150114 09:00;0.2;0
H2S;uur;�g/m�;20150114 09:00;20150114 10:00;0.1;1.5
H2S;uur;�g/m�;20150114 10:00;20150114 11:00;0.3;3.2
H2S;uur;�g/m�;20150114 11:00;20150114 12:00;0.1;2.1
H2S;uur;�g/m�;20150114 12:00;20150114 13:00;0;
H2S;uur;�g/m�;20150114 13:00;20150114 14:00;0.2;0.1
H2S;uur;�g/m�;20150114 14:00;20150114 15:00;0;0
H2S;uur;�g/m�;20150114 15:00;20150114 16:00;0.1;0.1
H2S;uur;�g/m�;20150114 16:00;20150114 17:00;0.1;0
H2S;uur;�g/m�;20150114 17:00;20150114 18:00;0.2;0.1
H2S;uur;�g/m�;20150114 18:00;20150114 19:00;0.2;0
H2S;uur;�g/m�;20150114 19:00;20150114 20:00;0.3;0.1
H2S;uur;�g/m�;20150114 20:00;20150114 21:00;0.2;1.8
H2S;uur;�g/m�;20150114 21:00;20150114 22:00;0.6;2.8
H2S;uur;�g/m�;20150114 22:00;20150114 23:00;0.5;0.5
H2S;uur;�g/m�;20150114 23:00;20150115 00:00;0.3;1
H2S;uur;�g/m�;20150115 00:00;20150115 01:00;0.3;0.6
H2S;uur;�g/m�;20150115 01:00;20150115 02:00;0.3;0.9
H2S;uur;�g/m�;20150115 02:00;20150115 03:00;0.2;0.5
H2S;uur;�g/m�;20150115 03:00;20150115 04:00;0.1;0.3
H2S;uur;�g/m�;20150115 04:00;20150115 05:00;0.1;0.3
H2S;uur;�g/m�;20150115 05:00;20150115 06:00;0.2;2.3
H2S;uur;�g/m�;20150115 06:00;20150115 07:00;0.2;
H2S;uur;�g/m�;20150115 07:00;20150115 08:00;0.2;10.4
H2S;uur;�g/m�;20150115 08:00;20150115 09:00;0.1;3.4
H2S;uur;�g/m�;20150115 09:00;20150115 10:00;0.3;3.1
H2S;uur;�g/m�;20150115 10:00;20150115 11:00;0.1;1.2
H2S;uur;�g/m�;20150115 11:00;20150115 12:00;0.2;1.7
H2S;uur;�g/m�;20150115 12:00;20150115 13:00;0.1;1.2
H2S;uur;�g/m�;20150115 13:00;20150115 14:00;0.1;6.3
H2S;uur;�g/m�;20150115 14:00;20150115 15:00;0.2;6.4
H2S;uur;�g/m�;20150115 15:00;20150115 16:00;0.3;4.4
H2S;uur;�g/m�;20150115 16:00;20150115 17:00;;5.1
H2S;uur;�g/m�;20150115 17:00;20150115 18:00;0.8;5.4
H2S;uur;�g/m�;20150115 18:00;20150115 19:00;0.5;4.1
H2S;uur;�g/m�;20150115 19:00;20150115 20:00;0.5;1.6
H2S;uur;�g/m�;20150115 20:00;20150115 21:00;0.4;0.4
H2S;uur;�g/m�;20150115 21:00;20150115 22:00;0.4;0.2
H2S;uur;�g/m�;20150115 22:00;20150115 23:00;0.6;0.1
H2S;uur;�g/m�;20150115 23:00;20150116 00:00;0.6;3
H2S;uur;�g/m�;20150116 00:00;20150116 01:00;0.7;0.3
H2S;uur;�g/m�;20150116 01:00;20150116 02:00;0.5;0.1
H2S;uur;�g/m�;20150116 02:00;20150116 03:00;0.4;0
H2S;uur;�g/m�;20150116 03:00;20150116 04:00;0.6;0.1
H2S;uur;�g/m�;20150116 04:00;20150116 05:00;0.3;0
H2S;uur;�g/m�;20150116 05:00;20150116 06:00;0.5;0
H2S;uur;�g/m�;20150116 06:00;20150116 07:00;0.5;0.1
H2S;uur;�g/m�;20150116 07:00;20150116 08:00;0.4;2.1
H2S;uur;�g/m�;20150116 08:00;20150116 09:00;0.6;5.6
H2S;uur;�g/m�;20150116 09:00;20150116 10:00;0.9;5.3
H2S;uur;�g/m�;20150116 10:00;20150116 11:00;0.8;5.2
H2S;uur;�g/m�;20150116 11:00;20150116 12:00;0.7;4.9
H2S;uur;�g/m�;20150116 12:00;20150116 13:00;0.8;1.6
H2S;uur;�g/m�;20150116 13:00;20150116 14:00;0.9;5.4
H2S;uur;�g/m�;20150116 14:00;20150116 15:00;1;
H2S;uur;�g/m�;20150116 15:00;20150116 16:00;1;1.1
H2S;uur;�g/m�;20150116 16:00;20150116 17:00;0.9;0.2
H2S;uur;�g/m�;20150116 17:00;20150116 18:00;0.5;0.1
H2S;uur;�g/m�;20150116 18:00;20150116 19:00;0.5;0
H2S;uur;�g/m�;20150116 19:00;20150116 20:00;0.4;0.1
H2S;uur;�g/m�;20150116 20:00;20150116 21:00;0.5;0.1
H2S;uur;�g/m�;20150116 21:00;20150116 22:00;0.9;0
H2S;uur;�g/m�;20150116 22:00;20150116 23:00;0.4;0.2
H2S;uur;�g/m�;20150116 23:00;20150117 00:00;0.3;0.2
H2S;uur;�g/m�;20150117 00:00;20150117 01:00;0.7;0.1
H2S;uur;�g/m�;20150117 01:00;20150117 02:00;0.7;0.2
H2S;uur;�g/m�;20150117 02:00;20150117 03:00;0.9;0.1
H2S;uur;�g/m�;20150117 03:00;20150117 04:00;0.7;0
H2S;uur;�g/m�;20150117 04:00;20150117 05:00;0.2;0
H2S;uur;�g/m�;20150117 05:00;20150117 06:00;0.5;0
H2S;uur;�g/m�;20150117 06:00;20150117 07:00;0.4;0.1
H2S;uur;�g/m�;20150117 07:00;20150117 08:00;0.8;0.1
H2S;uur;�g/m�;20150117 08:00;20150117 09:00;0.8;0.3
H2S;uur;�g/m�;20150117 09:00;20150117 10:00;0.5;0
H2S;uur;�g/m�;20150117 10:00;20150117 11:00;0.6;0
H2S;uur;�g/m�;20150117 11:00;20150117 12:00;0.5;0
H2S;uur;�g/m�;20150117 12:00;20150117 13:00;0.7;0
H2S;uur;�g/m�;20150117 13:00;20150117 14:00;0.5;0.1
H2S;uur;�g/m�;20150117 14:00;20150117 15:00;0.8;3
H2S;uur;�g/m�;20150117 15:00;20150117 16:00;0.7;5.9
H2S;uur;�g/m�;20150117 16:00;20150117 17:00;0.6;6
H2S;uur;�g/m�;20150117 17:00;20150117 18:00;0.7;6.1
H2S;uur;�g/m�;20150117 18:00;20150117 19:00;;5.8
H2S;uur;�g/m�;20150117 19:00;20150117 20:00;0.3;4
H2S;uur;�g/m�;20150117 20:00;20150117 21:00;0.3;6.6
H2S;uur;�g/m�;20150117 21:00;20150117 22:00;0.4;5
H2S;uur;�g/m�;20150117 22:00;20150117 23:00;0.5;7.6
H2S;uur;�g/m�;20150117 23:00;20150118 00:00;0.4;6.4
H2S;uur;�g/m�;20150118 00:00;20150118 01:00;0.3;7
H2S;uur;�g/m�;20150118 01:00;20150118 02:00;0.7;5.9
H2S;uur;�g/m�;20150118 02:00;20150118 03:00;0.2;15.7
H2S;uur;�g/m�;20150118 03:00;20150118 04:00;0.5;5.7
H2S;uur;�g/m�;20150118 04:00;20150118 05:00;0.5;5
H2S;uur;�g/m�;20150118 05:00;20150118 06:00;0.3;3.3
H2S;uur;�g/m�;20150118 06:00;20150118 07:00;0.2;2.2
H2S;uur;�g/m�;20150118 07:00;20150118 08:00;0.2;4.2
H2S;uur;�g/m�;20150118 08:00;20150118 09:00;0.3;2.4
H2S;uur;�g/m�;20150118 09:00;20150118 10:00;0.5;3.2
H2S;uur;�g/m�;20150118 10:00;20150118 11:00;0.4;3.9
H2S;uur;�g/m�;20150118 11:00;20150118 12:00;0.4;4.9
H2S;uur;�g/m�;20150118 12:00;20150118 13:00;0.9;5
H2S;uur;�g/m�;20150118 13:00;20150118 14:00;0.5;3.4
H2S;uur;�g/m�;20150118 14:00;20150118 15:00;0.3;0.6
H2S;uur;�g/m�;20150118 15:00;20150118 16:00;0.6;0.3
H2S;uur;�g/m�;20150118 16:00;20150118 17:00;0.5;
H2S;uur;�g/m�;20150118 17:00;20150118 18:00;0.4;0.1
H2S;uur;�g/m�;20150118 18:00;20150118 19:00;0.7;1.1
H2S;uur;�g/m�;20150118 19:00;20150118 20:00;0.9;2.7
H2S;uur;�g/m�;20150118 20:00;20150118 21:00;1;2
H2S;uur;�g/m�;20150118 21:00;20150118 22:00;0.6;1.2
H2S;uur;�g/m�;20150118 22:00;20150118 23:00;1;1.3
H2S;uur;�g/m�;20150118 23:00;20150119 00:00;0.4;0.4
H2S;uur;�g/m�;20150119 00:00;20150119 01:00;0.4;0.2
H2S;uur;�g/m�;20150119 01:00;20150119 02:00;0.8;0
H2S;uur;�g/m�;20150119 02:00;20150119 03:00;0.9;0.1
H2S;uur;�g/m�;20150119 03:00;20150119 04:00;0.7;0.1
H2S;uur;�g/m�;20150119 04:00;20150119 05:00;0.7;1.1
H2S;uur;�g/m�;20150119 05:00;20150119 06:00;0.4;1.5
H2S;uur;�g/m�;20150119 06:00;20150119 07:00;0.7;0.7
H2S;uur;�g/m�;20150119 07:00;20150119 08:00;0.8;0.2
H2S;uur;�g/m�;20150119 08:00;20150119 09:00;0.5;0.1
H2S;uur;�g/m�;20150119 09:00;20150119 10:00;0.5;0
H2S;uur;�g/m�;20150119 10:00;20150119 11:00;0.5;0.9
H2S;uur;�g/m�;20150119 11:00;20150119 12:00;0.6;2
H2S;uur;�g/m�;20150119 12:00;20150119 13:00;0.5;0.4
H2S;uur;�g/m�;20150119 13:00;20150119 14:00;0.4;0
H2S;uur;�g/m�;20150119 14:00;20150119 15:00;0.4;0
H2S;uur;�g/m�;20150119 15:00;20150119 16:00;0.4;0